Location: Cactus School
(34.5700°N, 118.0931°W)
Time: 21:17:43
(UTC-08:00)

Tiros 1 - Pass Details

Date: 30 November 2019
Orbit: 630 x 664 km, 48.4° (Epoch: 08 December)

Event Time Altitude Azimuth Distance (km) Brightness Sun altitude
Rises 11:41:20 0° 289° (WNW) 2,924 10.4 33.7°
Reaches altitude 10° 11:44:30 10° 311° (NW) 2,012 9.4 33.7°
Maximum altitude 11:47:22 16° 350° (N) 1,649 8.9 33.7°
Drops below altitude 10° 11:50:13 10° 28° (NNE) 2,009 9.3 33.7°
Sets 11:53:23 0° 50° (NE) 2,917 10.2 33.7°
